#timestamp,LO_Frequency,Hit 
1499004015.5,286046990.1,N
1499004035.3,286046992.8,N
1499004055.2,286046990.4,N
1499004075.9,286046993.0,N
1499004095.7,286046994.6,N
1499004115.6,286046994.1,N
1499004135.4,286046992.2,N
1499004155.2,286046991.7,N
1499004175.1,286046992.3,N
1499004176.0,286046992.3,N
1499004195.8,286046994.6,N
1499004215.6,286046993.9,N
1499004235.5,286046991.9,N
1499004255.3,286046990.6,N
1499004275.1,286046991.4,N
1499004295.8,286046988.7,N
1499004315.7,286046992.8,N
1499004335.5,286046994.2,N
1499004355.3,286046993.7,N
1499004375.2,286046992.1,N
1499004395.9,286046993.4,N
1499004415.7,286046992.0,N
1499004435.6,286046996.4,N
1499004455.4,286046994.1,N
1499004475.2,286046993.9,N
1499004495.1,286046992.3,N
1499004496.0,286046992.3,N
1499004515.8,286046992.2,N
1499004535.6,286046994.5,N
1499004555.5,286046993.7,N
1499004575.3,286046993.8,N
1499004595.1,286046990.3,N
1499004615.8,286046992.6,N
1499004635.7,286046994.9,N
1499004655.5,286046995.5,N
1499004675.3,286046993.5,N
1499004695.2,286046994.1,N
1499004715.9,286046995.9,N
1499004735.7,286046995.1,N
1499004755.6,286046995.3,N
1499004775.4,286046995.0,N
1499004795.2,286046997.7,N
1499004815.1,286046999.5,N
1499004816.0,286046999.5,N
1499004835.8,286046996.6,N
1499004855.6,286046996.3,N
1499004875.5,286046996.1,N
1499004895.3,286046994.1,N
1499004915.1,286046994.7,N
1499004935.9,286046993.6,N
1499004955.7,286046996.0,N
1499004975.5,286046995.0,N
1499004995.3,286046998.0,N
1499005015.2,286046993.7,N
1499005035.0,286046994.7,N
1499005035.9,286046994.7,N
1499005055.7,286046992.2,N
1499005075.6,286046990.4,N
1499005095.4,286046990.3,N
1499005115.2,286046990.5,N
1499005135.1,286046990.2,N
1499005136.0,286046990.2,N
1499005155.8,286046994.1,N
1499005175.6,286046993.3,N
1499005195.5,286046994.0,N
1499005215.3,286046995.8,N
1499005235.1,286046993.3,N
1499005255.9,286046993.6,N
1499005275.7,286046996.1,N
1499005295.5,286046995.7,N
1499005315.4,286046994.8,N
1499005335.2,286046990.4,N
1499005355.0,286046990.4,N
1499005355.9,286046990.4,N
1499005375.8,286046991.6,N
1499005395.6,286046991.6,N
1499005415.4,286046989.6,N
1499005435.2,286046989.7,N
1499005455.1,286046990.0,N
1499005456.0,286046990.0,N
1499005475.8,286046987.1,N
1499005495.6,286046987.4,N
1499005515.5,286046990.0,N
1499005535.3,286046987.3,N
1499005555.1,286046990.0,N
1499005575.9,286046987.9,N
1499005595.7,286046986.2,N
1499005615.5,286046983.9,N
1499005635.4,286046985.5,N
1499005655.2,286046984.0,N
1499005675.0,286046984.0,N
1499005675.9,286046984.0,N
1499005695.8,286046986.2,N
1499005715.6,286046986.8,N
1499005735.4,286046986.1,N
1499005755.3,286046986.6,N
1499005775.1,286046986.8,N
1499005776.0,286046986.8,N
1499005795.8,286046983.7,N
1499005815.6,286046985.0,N
1499005835.5,286046984.0,N
1499005855.3,286046984.6,N
1499005875.1,286046984.3,N
1499005895.9,286046984.3,N
1499005915.7,286046985.1,N
1499005935.5,286046982.5,N
1499005955.4,286046983.4,N
1499005975.2,286046984.7,N
1499005995.0,286046983.1,N
1499005995.9,286046983.1,N
1499006015.8,286046981.2,N
1499006035.6,286046983.1,N
1499006055.4,286046982.1,N
1499006075.3,286046982.2,N
1499006095.1,286046982.2,N
1499006096.0,286046982.2,N
1499006115.8,286046984.5,N
1499006135.7,286046985.2,N
1499006155.5,286046985.1,N
1499006175.3,286046980.5,N
1499006195.2,286046980.8,N
1499006215.9,286046981.1,N
1499006235.7,286046981.0,N
1499006255.5,286046982.8,N
1499006275.4,286046981.1,N
1499006295.2,286046984.7,N
1499006315.0,286046983.5,N
1499006315.9,286046983.5,N
1499006335.8,286046982.8,N
1499006355.6,286046980.5,N
1499006375.4,286046983.1,N
1499006395.3,286046981.9,N
1499006415.1,286046982.9,N
1499006416.0,286046982.9,N
1499006435.8,286046980.6,N
1499006455.7,286046984.8,N
1499006475.5,286046984.2,N
1499006495.3,286046984.6,N
1499006515.2,286046983.9,N
1499006535.9,286046983.5,N
1499006555.7,286046982.5,N
1499006575.6,286046982.1,N
1499006595.4,286046981.2,N
1499006615.2,286046981.2,N
1499006635.1,286046981.7,N
1499006636.0,286046981.7,N
1499006655.8,286046985.0,N
1499006675.6,286046984.1,N
1499006695.4,286046986.3,N
1499006715.3,286046984.1,N
1499006735.1,286046982.1,N
1499006755.8,286046980.9,N
1499006775.7,286046980.7,N
1499006795.5,286046981.8,N
1499006815.3,286046982.3,N
1499006835.2,286046981.7,N
1499006855.9,286046980.2,N
1499006875.7,286046980.7,N
1499006895.6,286046981.9,N
1499006915.4,286046979.5,N
1499006935.2,286046979.0,N
1499006955.1,286046981.9,N
1499006956.0,286046981.9,N
1499006975.8,286046981.4,N
1499006995.6,286046982.8,N
1499007015.5,286046983.5,N
1499007035.3,286046982.6,N
1499007055.1,286046983.3,N
1499007075.8,286046981.3,N
1499007095.7,286046979.8,N
1499007115.5,286046977.4,N
1499007135.3,286046979.9,N
1499007155.2,286046981.0,N
1499007175.0,286046979.3,N
1499007175.9,286046979.3,N
1499007195.7,286046980.4,N
1499007215.6,286046977.7,N
1499007235.4,286046980.4,N
1499007255.2,286046981.3,N
1499007275.1,286046981.3,N
1499007276.0,286046981.3,N
1499007295.8,286046979.4,N
1499007315.6,286046981.2,N
1499007335.5,286046982.7,N
1499007355.3,286046983.3,N
1499007375.1,286046982.1,N
1499007395.9,286046982.2,N
1499007415.7,286046980.7,N
1499007435.5,286046982.7,N
1499007455.3,286046985.1,N
1499007475.2,286046985.0,N
1499007495.0,286046985.1,N
1499007495.9,286046985.1,N
1499007515.7,286046985.0,N
1499007535.6,286046982.5,N
1499007555.4,286046980.8,N
1499007575.2,286046980.6,N
1499007595.1,286046980.9,N
1499007596.0,286046980.9,N
